This is the latest recevied weather packets stored in our database for station/object IU1TLK-10. If no packets are shown the sender has not sent any weather packets the latest 10 day(s).
| Time | Temp. | Humidity | Pressure | Rain* | Wind** | Luminosity | Snow |
|---|---|---|---|---|---|---|---|
| 1777960116 | 10.56° C | 72% | 1015.6 hPa | - | - | - | - |
| 1777958316 | 10.56° C | 72% | 1015.5 hPa | - | - | - | - |
| 1777956516 | 10.56° C | 73% | 1015.7 hPa | - | - | - | - |
| 1777954716 | 10.56° C | 74% | 1015.5 hPa | - | - | - | - |
| 1777952916 | 10.56° C | 74% | 1015.8 hPa | - | - | - | - |
| 1777951115 | 11.11° C | 74% | 1016.6 hPa | - | - | - | - |
| 1777949317 | 11.11° C | 73% | 1016.3 hPa | - | - | - | - |
| 1777947516 | 11.11° C | 73% | 1016.5 hPa | - | - | - | - |
| 1777945716 | 11.11° C | 73% | 1016.5 hPa | - | - | - | - |
| 1777942116 | 11.11° C | 71% | 1017.1 hPa | - | - | - | - |
| 1777940316 | 11.67° C | 70% | 1017.6 hPa | - | - | - | - |
| 1777938516 | 11.67° C | 68% | 1018.1 hPa | - | - | - | - |
| 1777936715 | 11.67° C | 66% | 1018.5 hPa | - | - | - | - |
| 1777934915 | 11.67° C | 66% | 1018.9 hPa | - | - | - | - |
| 1777933115 | 12.22° C | 65% | 1019.2 hPa | - | - | - | - |
| 1777931315 | 12.22° C | 63% | 1019.4 hPa | - | - | - | - |
| 1777929515 | 12.22° C | 63% | 1019.5 hPa | - | - | - | - |
| 1777925918 | 12.78° C | 59% | 1019.7 hPa | - | - | - | - |
| 1777924118 | 12.78° C | 58% | 1019.7 hPa | - | - | - | - |
| 1777922317 | 13.33° C | 58% | 1019.2 hPa | - | - | - | - |
| 1777920520 | 13.89° C | 55% | 1019 hPa | - | - | - | - |
| 1777918717 | 14.44° C | 44% | 1018.7 hPa | - | - | - | - |
| 1777916916 | 14.44° C | 46% | 1018.7 hPa | - | - | - | - |
| 1777915118 | 15° C | 55% | 1018.5 hPa | - | - | - | - |
| 1777913316 | 15° C | 53% | 1018.6 hPa | - | - | - | - |
* Rain since midnight (hover to see other rain measurements)
** Current wind speed in m/s (hover to see current wind gust speed)